Skip navigation

RAMMB: Regional and Mesoscale Meteorology Branch CIRA: Cooperative Institute for Research in the Atmosphere

AL142012 - Hurricane NADINE

View model data products for this storm.

New: Day/Night Visible Imagery VIIRS and Enhanced Infrared (IR) VIIRS data is available for storms starting in 2014.

Forecast Track

Time of Latest Forecast: 201210041200

Forecast Hour Latitude Longitude Intensity
0 0 0 0
12 0 0 0
24 0 0 0
36 0 0 0
48 0 0 0
72 0 0 0
96 0 0 0
120 0 0 0

Forecast Track Archive

About Forecast Track

Track History

Synoptic Time Latitude Longitude Intensity
201210041200 39 -27.2 40
201210040600 37.6 -29.1 40
201210040000 36.5 -31 40
201210031800 35.4 -32.5 40
201210031200 34.9 -34 40
201210030600 34.6 -35.3 45
201210030000 34.4 -36.1 50
201210021800 34.4 -37.1 55
201210021200 34.3 -37.9 55
201210020600 34.5 -38.5 55
201210020000 34.8 -39.1 50
201210011800 35.6 -39.4 55
201210011200 36 -39.3 60
201210010600 36.4 -39.3 65
201210010000 37.1 -39.3 75
201209301800 37.3 -39 80
201209301200 36.9 -38.3 80
201209300600 36.2 -37.6 75
201209300000 35.2 -37.3 70
201209291800 33.9 -36.5 70
201209291200 32.7 -36 65
201209290600 31.2 -35.7 65
201209290000 30.6 -35.3 65
201209281800 29.8 -34.8 65
201209281200 29.3 -34.4 65
201209280600 28.8 -33.9 55
201209280000 28.6 -33.1 55
201209271800 28.7 -32.5 55
201209271200 28.8 -32.1 50
201209270600 29.1 -31.3 45
201209270000 29.7 -31.1 45
201209261800 30.4 -30.6 45
201209261200 30.8 -30.3 40
201209260600 31.1 -30.4 40
201209260000 31.4 -30.3 40
201209251800 31.9 -30.3 40
201209251200 31.9 -29.9 40
201209250600 32.2 -29.4 40
201209250000 32.2 -28.7 40
201209241800 31.7 -28.3 45
201209241200 31.6 -27.5 45
201209240600 31.3 -26.6 45
201209240000 31 -26.1 50
201209231800 30.9 -25.8 50
201209231200 30.5 -25.4 50
201209230600 30.6 -25.9 50
201209230000 30.4 -25.7 45
201209221200 30.8 -26.5 45
201209220600 31.8 -26.7 45
201209220000 32.5 -26.8 50
201209211800 33.5 -27.2 50
201209211200 34.7 -27.5 55
201209210600 35.3 -27.4 55
201209210000 35.9 -28 55
201209201800 36.3 -28.6 45
201209201200 36.4 -29.8 45
201209200600 37 -31 45
201209200000 37.3 -31.7 45
201209191800 37.1 -32.1 45
201209191200 37 -31.7 45
201209190600 36.2 -32.1 45
201209190000 35.5 -32.2 45
201209181800 34.9 -32.7 50
201209181200 34.3 -33.3 50
201209180600 34 -33.8 50
201209180000 33.6 -34.5 50
201209171800 33.2 -34.9 55
201209171200 32.5 -35.9 60
201209170600 31.7 -37.1 60
201209170000 31.1 -38.8 60
201209161800 30.7 -40.2 70
201209161200 30.5 -42.8 70
201209160600 30.6 -45.6 70
201209160000 30.7 -47.5 70
201209151800 30.9 -49.1 70
201209151200 30.8 -50.6 70
201209150600 30.4 -52 65
201209150000 29.6 -53.2 65
201209141800 28.3 -53.8 60
201209141200 27.3 -53.6 60
201209140600 25.7 -53.9 60
201209140000 24.4 -53.4 60
201209131800 23.3 -52.6 60
201209131200 22 -51.7 60
201209130600 21 -50.6 60
201209130000 20.2 -49.5 60
201209121800 19.6 -48.2 55
201209121200 18.7 -47 50
201209120600 18.3 -46 40
201209120000 17.5 -44.6 35
201209111800 17.1 -43.3 30
201209111200 16 -42.6 30
201209101200 15.4 -37.4 25

About Track History

Enhanced Infrared (IR) Imagery (4 km Mercator)

Loop | Latest Image | Archive | About

Time of This Image: 201209301815

AMSU Microwave 89 GHz Imagery (4 km Mercator)

Loop | Latest Image | Archive | About

Time of This Image: 201210010605

IR/WV/Microwave RGB (IR [R], WV [G], MI89 [B])

Storm Relative 1 km Geostationary Visible Imagery

Loop | Latest Image | Archive | About

Time of This Image: 201209301815

2 km Storm Relative IR Imagery with BD Enhancement Curve

Loop | Latest Image | Archive | About

Time of This Image: 201209301815

Enhanced Infrared (IR) Imagery (1 km Mercator, MODIS/AVHRR)

Loop | Latest Image | Archive | About

Time of Latest Image: 201210050236

Enhanced Infrared (IR) VIIRS

No Data Available

Visible Imagery (1 km Mercator, MODIS/AVHRR)

Loop | Latest Image | Archive | About

Time of Latest Image: 201210041540

2km Natural Color Imagery

Latest Image | Archive | About

Time of Latest Image: 201210041505

Storm Relative 16 km Geostationary Water Vapor Imagery

Loop | Latest Image | Archive | About

Time of This Image: 201210031515

Storm Relative 16 km Microwave-Based Total Precipitable Water Imagery

Loop | Latest Image | Archive | About

Time of This Image: 201210010153

Ocean Heat Content & Forecast Track

Latest Image | Archive | About

Time of Latest Image: 201210040600

Multiplatform Satellite Surface Wind Analysis (Experimental)

Latest Image | Archive | About

Time of Latest Image: 201210041800

Multiplatform Tropical Cyclone Kinetic Energy and Intensity

Loop | Latest Image | Archive | About

Time of This Image: 201209301800

Multiplatform Tropical Cyclone MSLP and Maximum Winds

Latest Image | Archive | About

Time of Latest Image: 201210041800

Digital Dvorak

Latest Image | Archive | About

Time of Latest Image: 201210042100

AMSU Intensity Time Series

Latest Image | Archive | About

Time of Latest Image: 201210041800

IR-based TC size

No Data Available

Time Series of the Simplified Holland B parameter calculated from the TC Vitals

No Data Available

AMSU Radial/Height Cross Sections

Latest Image | Archive | About

Time of Latest Image: 201210041439

AMSU Area-Averaged Wind Shears and Layer Means

About